[[{"header":{"parameterUnit":"m.s-1","parameterCategory":1,"la1":30.2991,"la2":30.254,"lo1":-89.0895,"lo2":-89.0444,"dy":0.0017,"dx":0.0017,"nx":28,"ny":28,"refTime":"2024-10-21T03:00:00:Z","depth":0,"parameterNumber":2,"parameterNumberName":"U-component_of_WINDS"},"data":[0,0,0,0,0,0,0,0,0,0,0,0,0,0,0,0,0,0,0,0,0,0,0,0,0,0,0,0,0,0,0,0,0,0,0,0,0,0,0,0,0,0,0,0,0,0,0,0,0,0,0,0,0,0,0,0,0,0,0.3738,0.3738,0,0.3744,0.3744,0.3744,0.3775,0.3776,0.3776,0.3777,0.378,0.3779,0.3778,0,0,0,0,0,0,0,0,0,0,0,0,0,0.3751,0.3751,0.3738,0.3738,0.3738,0.3744,0.3744,0.3744,0.3775,0.3776,0.3776,0.3777,0.378,0.3779,0.3778,0,0,0,0,0,0,0,0,0,0,0,0,0,0.375,0.3751,0.3738,0.3754,0.3756,0.3744,0.3744,0.3744,0.3774,0.3776,0.3777,0.3778,0.378,0.3779,0.3778,0.375,0,0,0.3775,0.3775,0,0,0,0,0,0,0,0,0.375,0.375,0.3752,0.3753,0.3755,0.376,0.375,0.3746,0.3774,0.3767,0.3777,0.3778,0.3772,0.3772,0.377,0.375,0.375,0.3775,0.3775,0.3774,0.3774,0,0,0,0,0,0,0,0.375,0.3749,0.374,0.3752,0.3754,0.3761,0.3762,0.3749,0.3763,0.3768,0.377,0.3771,0.3773,0.3771,0.377,0.375,0.3775,0.3774,0.3774,0.3773,0.3708,0.3707,0,0,0,0,0,0,0.3748,0.3749,0.374,0.3741,0.3755,0.3759,0.3761,0.3757,0.3763,0.3766,0.377,0.3772,0.3772,0.3772,0.3771,0.3738,0.3774,0.3773,0.3773,0.3709,0.3707,0.3706,0,0,0,0,0,0,0.3749,0.3747,0.374,0.3746,0.3745,0.3758,0.3754,0.3757,0.3755,0.3765,0.3767,0.3765,0.3773,0.3772,0.3755,0.3738,0.3773,0.3772,0.371,0.3708,0.3707,0.3671,0,0,0,0,0,0,0.3749,0.3747,0.3737,0.3745,0.3745,0.3725,0.3753,0.3756,0.3754,0.3757,0.3761,0.3763,0.3774,0.3756,0.3754,0.3737,0.3771,0.3712,0.3709,0.3707,0.3674,0.3669,0.3664,0,0,0,0,0,0.3749,0.3726,0.3736,0.3735,0.3733,0.3724,0.3724,0.3737,0.3752,0.3741,0.3748,0.3763,0.3741,0.3754,0.3752,0.3735,0.3713,0.371,0.3708,0.3676,0.367,0.3664,0,0,0,0,0,0,0.3714,0.3727,0.3739,0.3718,0.372,0.3729,0.3716,0.373,0.3726,0.3729,0.3746,0.3746,0.3727,0.373,0.3744,0.3708,0.3729,0.3726,0.3706,0.37,0.3695,0.3694,0.3771,0,0,0,0,0,0.3704,0.3697,0.3709,0.3689,0.369,0.3703,0.3699,0.371,0.3712,0.3712,0.3718,0.3718,0.3712,0.3707,0.3701,0.3676,0.3676,0.3663,0.3658,0.3653,0.3649,0.3636,0.3629,0.3697,0.3697,0.3697,0,0,0.3682,0.3689,0.3683,0.3682,0.3685,0.3676,0.3703,0.3692,0.3685,0.3711,0.3695,0.3699,0.3701,0.3679,0.367,0.3681,0.3631,0.365,0.3647,0.3645,0.3632,0.3626,0.362,0.3696,0.3696,0.3696,0,0,0.3639,0.3644,0.3628,0.363,0.3635,0.3644,0.364,0.3648,0.3652,0.3637,0.3656,0.3648,0.3636,0.3636,0.3635,0.3593,0.3606,0.3591,0.3563,0.355,0.3544,0.354,0.3523,0.3517,0.3588,0.3588,0.3588,0,0.3611,0.3599,0.3617,0.3606,0.3604,0.3629,0.3612,0.3613,0.3615,0.3613,0.3626,0.3612,0.3615,0.3594,0.3584,0.3582,0.3577,0.3589,0.3544,0.3539,0.3535,0.3519,0.3513,0.3586,0.3586,0.3586,0.3587,0,0.3564,0.3556,0.3542,0.3545,0.3542,0.3528,0.3543,0.3538,0.355,0.3558,0.3542,0.3547,0.3543,0.3539,0.355,0.3519,0.3526,0.3541,0.3562,0.3526,0.3512,0.3506,0.3583,0.3584,0.3584,0.3585,0,0,0.3495,0.3509,0.3504,0.3505,0.3513,0.3506,0.3494,0.3491,0.3485,0.3487,0.3475,0.3466,0.348,0.3479,0.349,0.3478,0.3444,0.3495,0.3495,0.3483,0.3409,0.3395,0.3388,0.3454,0.3453,0.3452,0.3408,0,0.3451,0.3431,0.3447,0.3423,0.3415,0.344,0.3428,0.3431,0.3439,0.3433,0.3441,0.3433,0.3454,0.3453,0.3443,0.345,0.3428,0.3454,0.3441,0.3441,0.3437,0.3381,0.3366,0.3324,0.3403,0.3402,0.3401,0,0.3397,0.3397,0.3372,0.3382,0.3379,0.3369,0.3368,0.3362,0.3366,0.3372,0.3372,0.3387,0.3374,0.3397,0.3379,0.3396,0.3393,0.3396,0.3395,0.3391,0.3416,0.3374,0.3311,0.3304,0.3393,0.3393,0.3394,0,0.3346,0.334,0.3325,0.3325,0.3337,0.3329,0.3333,0.3339,0.3336,0.3335,0.3333,0.3331,0.3329,0.3326,0.334,0.3356,0.3319,0.3344,0.3323,0.3322,0.3311,0.3311,0.3244,0.3313,0.3314,0.3314,0.3314,0,0.3294,0.3277,0.3302,0.3292,0.3274,0.3294,0.3275,0.3282,0.3287,0.3278,0.33,0.3291,0.3311,0.3304,0.3315,0.3297,0.3297,0.33,0.3303,0.3297,0.3296,0.3292,0.3294,0.3312,0.3312,0.3313,0.3313,0,0.3233,0.3249,0.3233,0.3246,0.325,0.3235,0.3246,0.3237,0.3248,0.3236,0.3234,0.325,0.3243,0.3257,0.3252,0.3259,0.3234,0.3242,0.3232,0.3234,0.3211,0.3212,0.3137,0.3127,0.3205,0.3204,0.3204,0,0.3197,0.3185,0.3197,0.3194,0.3197,0.3191,0.3189,0.3209,0.3205,0.321,0.32,0.3195,0.3192,0.318,0.319,0.3186,0.3192,0.3167,0.3192,0.3186,0.3189,0.3188,0.3187,0.316,0.3159,0.3159,0.3158,0,0.3131,0.314,0.3136,0.3136,0.3134,0.3134,0.3136,0.3131,0.3153,0.3148,0.3142,0.314,0.3135,0.3129,0.3128,0.3132,0.3147,0.3151,0.3145,0.3137,0.3131,0.3132,0.3215,0.3152,0.3152,0.3153,0.3153,0.3153,0.3079,0.3069,0.3077,0.3073,0.3077,0.3079,0.3071,0.3081,0.3076,0.3075,0.3087,0.3078,0.3083,0.3083,0.3086,0.3078,0.3089,0.3082,0.3079,0.3076,0.3071,0.3135,0.3078,0.3079,0.3079,0.3079,0.3079,0,0.3012,0.3019,0.3015,0.3018,0.3014,0.3033,0.3036,0.3031,0.3024,0.3028,0.3025,0.3018,0.3013,0.3024,0.302,0.3012,0.3019,0.301,0.3009,0.301,0.3063,0.3067,0.3005,0.3005,0.3005,0.3005,0.3005,0.3005,0.2976,0.296,0.2971,0.2957,0.2964,0.2956,0.2956,0.2958,0.2961,0.2953,0.2949,0.2957,0.2964,0.2961,0.2958,0.2961,0.2957,0.2945,0.295,0.2999,0.3006,0.3013,0.3017,0.2945,0.2945,0.2898,0.2897,0.2897]},{"header":{"parameterUnit":"m.s-1","parameterCategory":1,"la1":30.2991,"la2":30.254,"lo1":-89.0895,"lo2":-89.0444,"dy":0.0017,"dx":0.0017,"nx":28,"ny":28,"refTime":"2024-10-21T03:00:00:Z","depth":0,"parameterNumber":3,"parameterNumberName":"V-component_of_WINDS"},"data":[0,0,0,0,0,0,0,0,0,0,0,0,0,0,0,0,0,0,0,0,0,0,0,0,0,0,0,0,0,0,0,0,0,0,0,0,0,0,0,0,0,0,0,0,0,0,0,0,0,0,0,0,0,0,0,0,0,0,-1.2205,-1.2207,0,-1.2361,-1.2363,-1.2364,-1.2434,-1.2434,-1.2434,-1.2434,-1.2593,-1.2598,-1.2602,0,0,0,0,0,0,0,0,0,0,0,0,0,-1.1969,-1.1973,-1.2205,-1.2207,-1.2209,-1.236,-1.2363,-1.2365,-1.2434,-1.2434,-1.2434,-1.2434,-1.2592,-1.2597,-1.2603,0,0,0,0,0,0,0,0,0,0,0,0,0,-1.2092,-1.1974,-1.2205,-1.2262,-1.2268,-1.236,-1.2363,-1.2365,-1.2434,-1.2434,-1.2434,-1.2433,-1.259,-1.2597,-1.2603,-1.265,0,0,-1.2624,-1.2626,0,0,0,0,0,0,0,0,-1.2085,-1.2101,-1.2251,-1.2258,-1.2266,-1.2378,-1.2338,-1.2461,-1.2434,-1.2371,-1.2434,-1.2433,-1.2522,-1.2534,-1.2564,-1.2657,-1.2664,-1.2624,-1.2628,-1.2631,-1.2633,0,0,0,0,0,0,0,-1.2077,-1.2095,-1.2267,-1.2253,-1.2262,-1.228,-1.2297,-1.2362,-1.2446,-1.2377,-1.2382,-1.24,-1.2526,-1.2557,-1.2568,-1.2667,-1.2624,-1.263,-1.2634,-1.2637,-1.2807,-1.2808,0,0,0,0,0,0,-1.2059,-1.2087,-1.2262,-1.2271,-1.2173,-1.2284,-1.2304,-1.2342,-1.2446,-1.2461,-1.24,-1.2402,-1.2546,-1.256,-1.2574,-1.2636,-1.2631,-1.2637,-1.2641,-1.2806,-1.2807,-1.2808,0,0,0,0,0,0,-1.2053,-1.2074,-1.2255,-1.2181,-1.2205,-1.2289,-1.2331,-1.2345,-1.2377,-1.2463,-1.2479,-1.2416,-1.2547,-1.2565,-1.2631,-1.2643,-1.264,-1.2646,-1.2806,-1.2807,-1.2807,-1.276,0,0,0,0,0,0,-1.2046,-1.2071,-1.2089,-1.2181,-1.2209,-1.2309,-1.2332,-1.2348,-1.2388,-1.2393,-1.2483,-1.2498,-1.2548,-1.262,-1.2637,-1.2652,-1.2651,-1.2805,-1.2806,-1.2807,-1.2761,-1.2759,-1.2758,0,0,0,0,0,-1.2038,-1.207,-1.209,-1.2111,-1.2234,-1.2309,-1.2326,-1.2383,-1.2389,-1.2408,-1.2464,-1.2495,-1.2639,-1.2627,-1.2646,-1.2663,-1.2805,-1.2806,-1.2807,-1.2762,-1.276,-1.2758,0,0,0,0,0,0,-1.1978,-1.2083,-1.2106,-1.2169,-1.223,-1.2321,-1.2347,-1.2378,-1.2439,-1.2441,-1.2509,-1.2529,-1.2589,-1.2633,-1.2617,-1.2714,-1.2724,-1.273,-1.2683,-1.2682,-1.268,-1.2669,-1.2657,0,0,0,0,0,-1.1972,-1.2025,-1.2114,-1.216,-1.219,-1.2263,-1.2298,-1.2337,-1.2402,-1.2428,-1.2489,-1.2551,-1.2611,-1.2649,-1.2708,-1.2768,-1.2789,-1.2789,-1.2787,-1.2785,-1.2789,-1.2825,-1.2826,-1.2812,-1.2812,-1.2812,0,0,-1.196,-1.2024,-1.2053,-1.215,-1.2202,-1.2255,-1.2284,-1.2339,-1.238,-1.2437,-1.2503,-1.2549,-1.2624,-1.2687,-1.2718,-1.2725,-1.2798,-1.2787,-1.2785,-1.279,-1.2826,-1.2827,-1.2828,-1.2813,-1.2812,-1.2812,0,0,-1.1967,-1.202,-1.2065,-1.2116,-1.2194,-1.2243,-1.2253,-1.234,-1.2373,-1.2441,-1.2485,-1.2534,-1.2635,-1.2687,-1.2726,-1.2753,-1.2784,-1.277,-1.2762,-1.2796,-1.2797,-1.2798,-1.2808,-1.2811,-1.2774,-1.2774,-1.2773,0,-1.1943,-1.2025,-1.2084,-1.2138,-1.2179,-1.2233,-1.228,-1.2327,-1.242,-1.2447,-1.2455,-1.2583,-1.2637,-1.2713,-1.2719,-1.2749,-1.2764,-1.276,-1.2792,-1.2794,-1.2796,-1.2806,-1.281,-1.2771,-1.2772,-1.2772,-1.2772,0,-1.1991,-1.2048,-1.2075,-1.2163,-1.2208,-1.2257,-1.2325,-1.2363,-1.2398,-1.2446,-1.2514,-1.2581,-1.2655,-1.2676,-1.2711,-1.2758,-1.276,-1.2778,-1.279,-1.2794,-1.2805,-1.2809,-1.2768,-1.2769,-1.277,-1.277,0,0,-1.1965,-1.2086,-1.2095,-1.2136,-1.2226,-1.2271,-1.2323,-1.2396,-1.2427,-1.249,-1.2536,-1.262,-1.2638,-1.2683,-1.2723,-1.2753,-1.2771,-1.2768,-1.2771,-1.2767,-1.2827,-1.2813,-1.2817,-1.2792,-1.2793,-1.2793,-1.2821,0,-1.1984,-1.2079,-1.2135,-1.2208,-1.2261,-1.2314,-1.2359,-1.2419,-1.2466,-1.2518,-1.2569,-1.2628,-1.2647,-1.2674,-1.2706,-1.2761,-1.2784,-1.276,-1.2836,-1.2837,-1.2815,-1.2822,-1.2808,-1.2831,-1.2826,-1.2827,-1.2827,0,-1.2019,-1.208,-1.2158,-1.2243,-1.2267,-1.2307,-1.2379,-1.2428,-1.2497,-1.2529,-1.2579,-1.262,-1.2678,-1.2685,-1.2766,-1.2748,-1.2783,-1.2815,-1.2817,-1.2827,-1.2833,-1.2833,-1.2839,-1.2843,-1.2834,-1.2834,-1.2833,0,-1.1992,-1.2094,-1.2155,-1.2188,-1.2288,-1.2315,-1.2358,-1.2428,-1.2468,-1.2531,-1.2558,-1.2626,-1.2663,-1.2716,-1.2774,-1.2774,-1.2849,-1.2861,-1.2878,-1.2876,-1.2892,-1.289,-1.2904,-1.2913,-1.2912,-1.2912,-1.2912,0,-1.2008,-1.2054,-1.2144,-1.2181,-1.2234,-1.2298,-1.2349,-1.2396,-1.2458,-1.2505,-1.2555,-1.2599,-1.2673,-1.2726,-1.2772,-1.2833,-1.2849,-1.2877,-1.2889,-1.2873,-1.2869,-1.2896,-1.2896,-1.2913,-1.2913,-1.2913,-1.2913,0,-1.1987,-1.2049,-1.2119,-1.2208,-1.2231,-1.2267,-1.2343,-1.2382,-1.243,-1.249,-1.2508,-1.2585,-1.265,-1.2713,-1.2801,-1.2832,-1.2892,-1.2907,-1.2868,-1.2875,-1.2888,-1.2886,-1.2921,-1.2929,-1.2931,-1.293,-1.293,0,-1.1993,-1.203,-1.2123,-1.2158,-1.22,-1.2257,-1.2298,-1.2362,-1.2404,-1.2486,-1.2515,-1.2583,-1.2642,-1.2743,-1.2807,-1.2875,-1.2892,-1.29,-1.2903,-1.2886,-1.2893,-1.2891,-1.2895,-1.2898,-1.2898,-1.2898,-1.2897,0,-1.1998,-1.2027,-1.2085,-1.2154,-1.2202,-1.2259,-1.2318,-1.2344,-1.242,-1.2464,-1.2531,-1.2576,-1.2666,-1.2733,-1.2808,-1.2853,-1.2888,-1.2896,-1.2904,-1.2888,-1.2864,-1.2878,-1.2864,-1.2895,-1.2895,-1.2895,-1.2895,-1.2896,-1.1992,-1.2027,-1.2098,-1.2161,-1.2212,-1.2266,-1.2307,-1.2361,-1.2418,-1.2495,-1.253,-1.2598,-1.2668,-1.2772,-1.2816,-1.287,-1.2879,-1.289,-1.2893,-1.2894,-1.2891,-1.2855,-1.2884,-1.2884,-1.2884,-1.2885,-1.2885,0,-1.2,-1.2048,-1.2105,-1.2186,-1.2236,-1.2264,-1.2331,-1.2371,-1.243,-1.2492,-1.2548,-1.2626,-1.2692,-1.2761,-1.2831,-1.2862,-1.2879,-1.2878,-1.2877,-1.2887,-1.2879,-1.2866,-1.2862,-1.2862,-1.2862,-1.2862,-1.2862,-1.2862,-1.2009,-1.2071,-1.2108,-1.2196,-1.2244,-1.2311,-1.2347,-1.2397,-1.2447,-1.2531,-1.2586,-1.2631,-1.2696,-1.2772,-1.2834,-1.2853,-1.2877,-1.2871,-1.2894,-1.2886,-1.2887,-1.2888,-1.2876,-1.2875,-1.2875,-1.2897,-1.2897,-1.2897]}]]